Weather in Mata De Sao Joao

Brazil     12°31′39″S   38°18′19″W
temp.,
°C
wind,
m/s
gust,
m/s
humid.,
%
clouds,
%
prec.,
mm/h
press.,
hPa
HPBL,
m
23 may, mon
mon2300:00+20ssw139417 0.1 101873
03:00+20ssw129861 0.3 101757
06:00+21ssw119515 0.4 101835
09:00+24se268747 2.1 1020742
12:00+27se366337 1.8 10181341
15:00+26se356644 2.3 1016990
18:00+21se289459 1.4 1017183
21:00+21se299352 2.6 1018278
24 may, tue
tue2400:00+20sse129524 0.3 101857
03:00+20s139665 0.8 101781
06:00+21s159481 0.8 1018119
09:00+24sse488342 1.4 1019891
12:00+25sse477638 1.4 1018998
15:00+25s477523 2.6 1017949
18:00+21s29938 0.3 1018325
21:00+21s149834 0.5 101989
25 may, wed
wed2500:00+21s139820 0.5 101974
03:00+20s129925 2.4 101749
06:00+21sse139926 3.1 101895
09:00+24ese499222 7.6 1020844
12:00+25se499010 4.8 10191055
15:00+24ese498916 7.4 1017814
18:00+22ese2109079 0.9 1018349
21:00+22se298778 1.1 1019338
26 may, thu
thu2600:00+21se12905 0.1 101954
03:00+21sse12895 0.1 101722
06:00+20sse118821 0.0 101831
09:00+27ese485862 0.0 10191493
12:00+25se378423 2.4 1018800
15:00+24se389232 6.9 1017819
18:00+21se2109766 4.4 1018347
21:00+21sse189866 5.9 1019249
27 may, fri
fri2700:00+21sse189858 1.0 1018236
03:00+21s139885 2.1 101791
06:00+21s129950 2.9 101778
09:00+24se379223 5.6 1019706
12:00+25se379034 3.6 1017805
15:00+24ese37905 7.2 1015714
18:00+22ese149739 1.6 101692
21:00+21e119716 2.8 101716